TimeMST,TemperatureF,Dew PointF,Humidity,Sea Level PressureIn,VisibilityMPH,Wind Direction,Wind SpeedMPH,Gust SpeedMPH,PrecipitationIn,Events,Conditions,WindDirDegrees,DateUTC
12:27 AM,24.8,21.2,86,29.92,10.0,NW,11.5,21.9,0.00,,Overcast,320,2013-02-10 07:27:00
12:54 AM,25.0,21.0,85,30.02,10.0,WNW,11.5,-,0.00,,Overcast,300,2013-02-10 07:54:00
1:21 AM,24.8,21.2,86,29.93,10.0,NW,13.8,19.6,N/A,,Overcast,310,2013-02-10 08:21:00
1:54 AM,24.1,21.9,91,30.03,8.0,WNW,10.4,-,0.00,Snow,Light Snow,300,2013-02-10 08:54:00
2:04 AM,24.8,21.2,86,29.93,9.0,WNW,8.1,-,0.00,Snow,Light Snow,290,2013-02-10 09:04:00
2:54 AM,25.0,21.9,88,30.02,7.0,NW,15.0,26.5,0.00,Snow,Light Snow,320,2013-02-10 09:54:00
3:11 AM,24.8,21.2,86,29.94,2.5,NW,15.0,24.2,0.00,Snow,Light Snow,320,2013-02-10 10:11:00
3:19 AM,23.0,21.2,93,29.95,7.0,NW,15.0,23.0,0.00,Snow,Light Snow,320,2013-02-10 10:19:00
3:30 AM,23.0,19.4,86,29.94,10.0,NW,15.0,27.6,0.00,,Overcast,320,2013-02-10 10:30:00
3:54 AM,21.9,19.0,89,30.06,8.0,NW,13.8,21.9,0.00,Snow,Light Snow,320,2013-02-10 10:54:00
4:05 AM,21.2,17.6,86,29.96,9.0,NW,13.8,24.2,0.00,Snow,Light Snow,320,2013-02-10 11:05:00
4:37 AM,21.2,17.6,86,29.97,1.8,NW,12.7,23.0,0.00,Snow,Light Snow,320,2013-02-10 11:37:00
4:50 AM,21.2,17.6,86,29.97,3.0,NW,13.8,23.0,0.00,Snow,Light Snow,310,2013-02-10 11:50:00
4:54 AM,21.0,18.0,88,30.09,5.0,NW,16.1,23.0,0.00,Snow,Light Snow,310,2013-02-10 11:54:00
5:38 AM,21.2,15.8,80,29.99,4.0,NW,13.8,29.9,0.00,Snow,Light Snow,310,2013-02-10 12:38:00
5:54 AM,19.9,14.0,78,30.10,9.0,NW,17.3,25.3,0.00,,Overcast,320,2013-02-10 12:54:00
6:54 AM,19.0,14.0,81,30.13,8.0,NW,13.8,20.7,0.00,Snow,Light Snow,310,2013-02-10 13:54:00
7:54 AM,18.0,14.0,84,30.16,2.5,NW,11.5,19.6,0.00,Snow,Light Snow,320,2013-02-10 14:54:00
8:01 AM,17.6,15.8,93,30.02,2.5,NW,12.7,18.4,0.00,Snow,Light Snow,320,2013-02-10 15:01:00
8:18 AM,17.6,15.8,93,30.02,1.2,NW,13.8,-,0.00,Snow,Light Snow,310,2013-02-10 15:18:00
8:26 AM,17.6,15.8,93,30.03,1.5,NW,13.8,21.9,0.00,Snow,Light Snow,310,2013-02-10 15:26:00
8:38 AM,17.6,15.8,93,30.02,1.2,NW,16.1,21.9,0.00,Snow,Light Snow,310,2013-02-10 15:38:00
8:49 AM,17.6,15.8,93,30.02,0.5,NW,17.3,24.2,0.00,Fog-Snow,Snow,310,2013-02-10 15:49:00
8:54 AM,18.0,15.1,88,30.16,0.5,NW,16.1,24.2,0.00,Fog-Snow,Light Snow,310,2013-02-10 15:54:00
9:41 AM,17.6,15.8,93,30.02,1.0,NW,13.8,21.9,0.00,Snow,Light Snow,320,2013-02-10 16:41:00
9:54 AM,18.0,15.1,88,30.17,1.0,NW,15.0,23.0,0.00,Snow,Light Snow,310,2013-02-10 16:54:00
10:04 AM,17.6,15.8,93,30.03,0.8,NW,12.7,21.9,0.00,Snow,Light Snow,310,2013-02-10 17:04:00
10:09 AM,17.6,15.8,93,30.03,1.0,WNW,12.7,-,0.00,Snow,Light Snow,300,2013-02-10 17:09:00
10:19 AM,19.4,15.8,86,30.03,2.0,NW,10.4,-,0.00,Snow,Light Snow,310,2013-02-10 17:19:00
10:26 AM,19.4,15.8,86,30.03,1.8,NW,15.0,21.9,0.00,Snow,Light Snow,320,2013-02-10 17:26:00
10:40 AM,19.4,15.8,86,30.03,0.8,NW,13.8,23.0,0.00,Snow,Light Snow,310,2013-02-10 17:40:00
11:02 AM,19.4,15.8,86,30.03,1.0,NW,16.1,23.0,0.00,Snow,Light Snow,310,2013-02-10 18:02:00
11:10 AM,19.4,15.8,86,30.03,0.8,NW,18.4,25.3,0.00,Snow,Light Snow,310,2013-02-10 18:10:00
11:42 AM,19.4,15.8,86,30.03,0.2,WNW,21.9,33.4,0.00,Fog-Snow,Snow,300,2013-02-10 18:42:00
11:54 AM,19.0,15.1,85,30.16,0.5,NW,16.1,29.9,0.00,Fog-Snow,Light Snow,310,2013-02-10 18:54:00
12:07 PM,19.4,15.8,86,30.04,0.5,NW,20.7,28.8,0.00,Fog-Snow,Light Snow,310,2013-02-10 19:07:00
12:14 PM,17.6,15.8,93,30.03,0.5,NW,17.3,29.9,0.00,Fog-Snow,Snow,310,2013-02-10 19:14:00
12:21 PM,19.4,15.8,86,30.03,0.5,NW,16.1,23.0,0.00,Fog-Snow,Light Snow,310,2013-02-10 19:21:00
12:39 PM,17.6,15.8,93,30.04,0.5,NNW,12.7,18.4,0.00,Fog-Snow,Light Snow,330,2013-02-10 19:39:00
12:51 PM,19.4,14.0,80,30.03,1.2,NW,13.8,21.9,0.00,Snow,Light Snow,310,2013-02-10 19:51:00
12:54 PM,18.0,14.0,84,30.17,1.0,NW,15.0,21.9,0.00,Snow,Light Snow,310,2013-02-10 19:54:00
1:02 PM,17.6,14.0,86,30.03,0.5,NW,11.5,21.9,0.00,Fog-Snow,Snow,310,2013-02-10 20:02:00
1:10 PM,17.6,14.0,86,30.04,0.5,NW,11.5,19.6,0.00,Fog-Snow,Snow,310,2013-02-10 20:10:00
1:54 PM,18.0,14.0,84,30.19,0.5,NW,17.3,21.9,0.00,Fog-Snow,Snow,310,2013-02-10 20:54:00
2:01 PM,17.6,15.8,93,30.04,0.5,NW,16.1,23.0,0.00,Fog-Snow,Snow,310,2013-02-10 21:01:00
2:25 PM,17.6,14.0,86,30.04,1.0,NW,13.8,24.2,0.00,Snow,Light Snow,310,2013-02-10 21:25:00
2:54 PM,18.0,12.9,81,30.19,1.5,NW,15.0,24.2,0.00,Snow,Light Snow,310,2013-02-10 21:54:00
3:12 PM,17.6,12.2,79,30.05,2.0,NW,16.1,25.3,0.00,Snow,Light Snow,310,2013-02-10 22:12:00
3:22 PM,17.6,12.2,79,30.06,3.0,NW,17.3,25.3,0.00,Snow,Light Snow,320,2013-02-10 22:22:00
3:54 PM,19.0,12.0,74,30.22,8.0,NW,9.2,19.6,0.00,Snow,Light Snow,310,2013-02-10 22:54:00
4:19 PM,19.4,12.2,74,30.07,10.0,NW,9.2,17.3,0.00,,Overcast,310,2013-02-10 23:19:00
4:54 PM,18.0,12.0,78,30.22,10.0,WNW,3.5,-,0.00,,Overcast,290,2013-02-10 23:54:00
5:54 PM,17.1,10.9,77,30.23,10.0,SW,6.9,-,N/A,,Overcast,230,2013-02-11 00:54:00
6:39 PM,15.8,10.4,79,30.07,10.0,West,8.1,-,N/A,,Mostly Cloudy,280,2013-02-11 01:39:00
6:54 PM,14.0,10.0,84,30.24,10.0,WNW,6.9,-,N/A,,Mostly Cloudy,290,2013-02-11 01:54:00
7:54 PM,10.0,8.1,92,30.25,10.0,WSW,5.8,-,N/A,,Scattered Clouds,250,2013-02-11 02:54:00
8:54 PM,9.0,7.0,92,30.25,10.0,West,6.9,-,N/A,,Clear,270,2013-02-11 03:54:00
9:54 PM,8.1,5.0,87,30.25,10.0,SSW,9.2,-,N/A,,Clear,210,2013-02-11 04:54:00
10:54 PM,8.1,3.9,83,30.23,10.0,SW,10.4,-,N/A,,Clear,230,2013-02-11 05:54:00
11:54 PM,8.1,3.9,83,30.22,10.0,SSW,6.9,-,N/A,,Clear,200,2013-02-11 06:54:00